{"data":{"norad_id":46156,"epoch":"2026-07-12T21:34:35.840352Z","epoch_age_seconds":6035421,"freshness":"OLD","line1":"1 46156U 20057AR  26193.89902593  .09897584  12515-4  37208-3 0  9993","line2":"2 46156  53.0194 350.4530 0010701 290.7741  69.2160 16.43205886327925","mean_motion":16.43205886,"eccentricity":0.0010701,"inclination_deg":53.0194,"raan_deg":350.453,"arg_perigee_deg":290.7741,"mean_anomaly_deg":69.216,"bstar":0.00037208,"rev_number":32792,"period_min":87.633571195716,"perigee_km":150.29471667299,"apogee_km":164.2818338471,"semimajor_km":6535.42527526,"source":"CELESTRAK","updated_at":"2026-07-13T09:00:41.681578Z"}}